Regional Weather Roundup
Issued by NWS

Current Version | Previous Version | Text Only | Print | Product List | Glossary On
Versions: 1 2 3 4 5 6 7 8 9 10 11 12 13 14 15 16 17 18 19 20 21 22 23 24 25 26 27 28 29 30 31 32 33 34 35 36 37 38 39 40 41 42 43 44 45 46 47 48 49 50
000
ASUS44 KLUB 150710
RWRLUB
WEST TEXAS WEATHER ROUNDUP
NATIONAL WEATHER SERVICE LUBBOCK TX
200 AM CDT WED AUG 15 2018

NOTE: "FAIR" INDICATES FEW OR NO CLOUDS BELOW 12,000 FEET WITH NO
SIGNIFICANT WEATHER AND/OR OBSTRUCTIONS TO VISIBILITY.

TXZ004-006>008-010-012-014-016-OKZ002-150800-
TEXAS PANHANDLE/OKLAHOMA PANHANDLE

CITY           SKY/WX    TMP DP  RH WIND       PRES   REMARKS
AMARILLO       CLEAR     69  64  84 E10       30.07R
BORGER         PTCLDY    72  63  73 NE7       30.05R
CANADIAN       PTCLDY    72  69  90 CALM      30.00R
DALHART        MOCLDY    67  60  78 NE7       30.10S
DUMAS          CLEAR     65  60  84 N5        30.09R
GUYMON         CLEAR     64  60  87 N5        30.04F
HEREFORD       PTCLDY    69  64  85 E7        30.08S
PAMPA          PTCLDY    69  65  88 NE5       30.06R
PERRYTON       CLEAR     69  66  92 N6        30.02S
$$

TXZ026-029-035-045-048-150800-
SOUTHERN PANHANDLE/SOUTH PLAINS/ROLLING PLAINS

CITY           SKY/WX    TMP DP  RH WIND       PRES   REMARKS
CHILDRESS      CLOUDY    82  68  62 NE9       29.97R
SEMINOLE       CLEAR     73  65  74 S7        30.01S
LUBBOCK        CLEAR     77  65  66 S14       30.00R
PLAINVIEW      CLOUDY    73  62  67 CALM      30.02R
SNYDER         CLEAR     76  65  70 S6        29.98R
$$

TXZ052-054-060>062-072-078-127-140-154-169-150800-
PERMIAN BASIN/CONCHO VALLEY/BIG COUNTRY/EDWARDS PLATEAU

CITY           SKY/WX    TMP DP  RH WIND       PRES   REMARKS
ABILENE        CLEAR     79  37  22 S8        29.94S
BIG SPRING     CLEAR     75  66  72 S9        29.99S
BRADY          PTCLDY    75  66  73 S9        29.98R
BROWNWOOD      MOCLDY    77  68  73 S9        29.95R
JUNCTION       CLEAR     78  70  76 S6        29.98F
MIDLAND        CLEAR     77  67  71 S10       29.97F
ODESSA         CLEAR     77  66  68 S10       29.98F
SAN ANGELO     CLEAR     74  64  71 S6        29.95S
SONORA         CLEAR     77  66  69 S7        30.02S
SWEETWATER     CLEAR     77  63  61 S9        29.99R
WINK           CLEAR     78  66  66 SE12      29.94S
$$

TXZ055-058-074-075-080-082-150800-
FAR WEST/SOUTHWEST MOUNTAINS/TRANS PECOS

CITY           SKY/WX    TMP DP  RH WIND       PRES   REMARKS
ALPINE         CLEAR     69  63  80 W7        30.15S
DRYDEN           N/A     74  70  87 N6        29.95R
EL PASO        PTCLDY    83  53  35 S9        29.99S
FORT STOCKTON  CLEAR     76  65  68 S13       29.98S
GUADALUPE PASS CLEAR     77  55  46 SW16      30.14R
MARFA          CLEAR     64  61  90 N3        30.14R
PECOS          CLEAR     79  67  66 SE7       29.93S
PRESIDIO       FAIR      77  65  65 NE5       30.00S
$$

TXZ014-016-019-021>030-083-150800
TEXAS TECH WEST TEXAS MESONET/TEXAS PANHANDLE/NORTHERN SOUTH PLAINS

CITY           SKY/WX    TMP DP  RH WIND       PRES   REMARKS
ABERNATHY 5ENE   N/A     75  64  69 S9        30.04S
AMARILLO 9NNE    N/A     69  69 100 SE2       30.06S
AMARILLO 7SSE    N/A     69  64  85 E7        30.08F
AMHERST 1NE      N/A     71  64  79 S7        30.04S
BOOTLEG 11WNW    N/A     66  58  75 NE9       30.13R
CANADIAN 6E      N/A     70  67  93 N7        29.99S
CAPROCK CYN SP   N/A     77  65  66 N5        30.02R
CHILDRESS 2NNE   N/A     77  64  63 E13       29.98R
CLARENDON 2WSW   N/A     72  64  76 NE5       30.03S
CLAUDE 12SW      N/A     69  64  85 NE9       30.07S
DIMMITT 2NE      N/A     68  63  84 NE10      30.08S
FLOYDADA 2NNE    N/A     75  64  68 S7        30.03R
FRIONA 2NE       N/A     68  59  73 NE12      30.10R
GOODLETT 3W      N/A     76  66  69 NE15      29.96R
HART 3N          N/A     68  63  85 N8        30.08R
HEREFORD 2NW     N/A     70  59  67 E6        30.10S
MCLEAN 1E        N/A     72  66  81 NE5       30.01S
MEMPHIS 1NE      N/A     77  65  68 N2        29.97S
MULESHOE 2SSW    N/A     73  63  70 SE7       30.04R
OLTON 6S         N/A     72  63  74 SE3       30.04S
PALO DURO SP     N/A     72  63  73 SW2       30.08S
PAMPA 2E         N/A     67  65  93 N2        30.06S
PLAINVIEW 1S     N/A     75  64  68 NE3       30.04S
SILVERTON 7ESE   N/A     71  62  73 N8        30.03R
TULIA 2ENE       N/A     71  60  68 N3        30.07S
TURKEY 2WSW      N/A     76  65  69 W8        30.00R
UMBARGER 3NNE    N/A     67  63  87 NE7       30.09S
$$

TXZ033>036-039>041-045>048-150800
TEXAS TECH WEST TEXAS MESONET/SOUTH PLAINS

CITY           SKY/WX    TMP DP  RH WIND       PRES   REMARKS
AIKEN 3WSW       N/A     73  65  76 SE3       30.05R
ANDREWS 2NE      N/A     74  63  68 S7        30.02R
ANTON 6SSW       N/A     74  65  72 S8        30.03R
BROWNFIELD 2S    N/A     75  64  70 S9        30.02R
DENVR CTY 7WNW   N/A     72  62  72 S9        30.02S
GAIL 2ESE        N/A     74  64  71 SE3       29.99R
LAMESA 2SE       N/A     73  65  76 S6        30.01R
LUBBOCK 3WNW     N/A     76  63  63 S10       30.02R
MORTON 1ENE      N/A     74  62  66 S9        30.03S
ODONNELL 1N      N/A     75  63  66 S9        30.01R
PLAINS 3N        N/A     74  64  70 S10       30.04R
RALLS 1SE        N/A     74  62  67 S7        30.04R
REESE CENTER     N/A     74  64  70 S12       30.03R
SEAGRAVES 1SW    N/A     73  65  76 S6        30.02R
SEMINOLE 2NNE    N/A     74  63  70 SE7       30.01S
SLATON 2NE       N/A     75  64  68 S12       30.02R
SNYDER 3E        N/A     74  65  72 S7        29.98R
SUNDOWN 8SW      N/A     72  63  72 S8        30.03R
TAHOKA 3NNE      N/A     74  65  72 S8        30.02R
WOLFFORTH 6SSW   N/A     74  64  71 S9        30.02S
$$

TXZ031-032-036>038-042>044-150800-
TEXAS TECH WEST TEXAS MESONET/ROLLING PLAINS

CITY           SKY/WX    TMP DP  RH WIND       PRES   REMARKS
ASPERMONT 3NE    N/A     75  65  69 S3        29.95R
FLUVANNA 3WNW    N/A     74  62  66 S9        30.00R
GRAHAM 5SSW      N/A     76  64  65 S8        30.01R
GUTHRIE 10WSW    N/A     78  63  60 S8        29.96R
HASKELL 1NW      N/A     76  62  62 SE3       29.96R
JAYTON 1SSE      N/A     76  64  66 S3        29.96R
KNOX CITY 3NW    N/A     75  66  72 S5        29.95R
LK A HENRY 1NW   N/A     78  66  66 S6        29.98R
NORTHFIELD 1S    N/A     77  67  70 SW5       29.97R
ODELL 4ENE       N/A     76  66  71 SE14      29.95F
PADUCAH 10SW     N/A     77  65  67 S8        29.96R
POST 1NE         N/A     78  64  62 S7        29.99R
RRING SPRGS 3N   N/A     76  66  72 SW8       30.00R
SEYMOUR 3NW      N/A     77  64  63 SE5       29.94S
SPUR 1W          N/A     76  63  65 S2        29.98R
WEINERT 2NNE     N/A     78  65  65 S8        29.95R
WHITE RVR 6NE    N/A     76  63  63 S7        30.00R
$$

TXZ052-054-060>062-072-078-127-140-154-169-150800-
TEXAS TECH WEST TEXAS MESONET/PERMIAN BASIN/
CONCHO VALLEY/BIG COUNTRY/EDWARDS PLATEAU

CITY           SKY/WX    TMP DP  RH WIND       PRES   REMARKS
COYANOSA 2N      N/A     77  65  65 E8        29.96S
JUNCTION 1SSW    N/A     78  69  74 S14       29.99F
MERTZON 3NNE     N/A     73  66  77 S7        29.99R
SAN ANGELO 7NW   N/A     72  64  75 SE6       29.96S
STRLNG CT 4WSW   N/A     70  67  89 SE3       29.99S
ST LAWRNCE 5SW   N/A     70  66  85 SE8       29.99S
SWEETWATR 11SW   N/A     77  64  65 S15       30.00R
WALL 1E          N/A     75  67  76 SE9       29.97S
$$

TXZ055-058-074-075-080-082-150800-
TEXAS TECH WEST TEXAS MESONET/FAR WEST/SOUTHWEST MOUNTAINS/TRANS PECOS

CITY           SKY/WX    TMP DP  RH WIND       PRES   REMARKS
PRSMN GAP BBNP   N/A     77  64  63 S3        30.00F
GUADLPE MTN NP   N/A     74  54  48 SW10      30.17R
$$



USA.gov is the U.S. government's official web portal to all federal, state and local government web resources and services.